Terug naar catalogus

QIANFAN-236

ActiefCommunicatiePO
NORAD 69865·PAYLOAD·🇨🇳 China

Gelanceerd Jul 5, 2026 vanaf Wenchang Space Launch Site

Loading…

Volgende Passages (komende 24 uur)

TLE

VersSource: Space-Track

Epoch: Sep 14, 2026, 21:28 UTC

1 69865U 26155T   26257.89484333  .00000024  00000-0  15724-4 0  9996
2 69865  89.0085  54.2789 0035081  26.1286 334.1630 13.57842859  9970

Volg QIANFAN-236 in realtime met AllMySat

Download on the App Store